Location: Stara Lesna
(49.1528°N, 20.2911°E)
Time: 05:26:47
(UTC+02:00)

ATLAS 5 CENTAUR R/B - Pass Details

Date: 21 September 2019
Orbit: 558 x 1101 km, 63.4° (Epoch: 07 October)

Event Time Altitude Azimuth Distance (km) Brightness Sun altitude
Exits shadow 03:00:25 25° 344° (NNW) 1,376 3.5 -30.7°
Drops below altitude 10° 03:04:15 10° 31° (NNE) 2,276 5.3 -30.2°
Sets 03:07:13 0° 44° (NE) 3,311 6.5 -29.9°
